Temp
70 73 75 75 66 64 62 64 67 67 67 67 67 68 68 62 66 64 64 66 69 69 70 70 70 70 70 69 68 68 68 68 67 67 66 66 65 65 65 65 65 66 66 67 66 66 65 64 64
72 73 76 71 63 59 65 65 65 70 67 67 66 65 65 62 59 58 61 66 70 71 70 70 70 69 69 68 68 68 68 67 67 66 65 65 64 64 64 64 64 65 65 65 65 65 64 63 63
74 76 74 66 59 61 64 66 69 67 67 67 64 65 63 59 58 62 65 68 70 70 72 70 69 69 69 68 68 68 67 66 65 65 64 64 64 64 64 64 63 64 64 64 64 63 62 62 62
76 76 72 64 59 64 66 72 69 65 67 68 66 63 63 63 62 65 67 69 69 70 72 69 68 68 69 68 68 67 66 65 64 64 64 64 63 63 64 63 63 63 63 63 63 62 62 62 62
76 73 64 60 59 65 68 71 68 66 68 66 66 60 57 60 65 66 67 68 67 69 70 70 68 68 68 68 67 67 65 64 63 63 63 63 63 63 63 63 63 63 63 62 63 62 62 62 62
71 70 61 58 58 65 70 73 69 68 68 63 64 61 58 61 62 65 67 67 68 67 69 70 68 67 67 67 66 66 65 64 63 63 64 64 63 63 64 63 63 63 63 63 63 62 61 60 60
70 67 60 58 59 63 69 70 69 70 67 66 67 60 55 59 63 65 66 66 66 66 67 68 69 68 67 66 65 65 64 64 63 63 62 62 62 62 62 62 63 63 62 62 62 60 59 59 59
72 70 59 59 60 63 71 69 73 71 69 66 69 61 57 60 62 64 65 63 64 64 65 65 67 67 67 67 65 65 64 64 63 62 61 61 60 60 60 59 60 60 61 61 61 59 58 57 57
69 64 59 61 60 67 70 69 69 68 65 65 65 64 63 61 61 61 61 61 61 61 63 63 64 64 64 65 66 65 64 64 63 63 61 59 62 61 61 60 58 58 58 60 58 57 56 54 54
69 61 62 67 67 69 71 68 70 68 64 63 60 58 60 59 59 59 59 59 60 60 61 63 63 62 62 65 63 64 65 66 64 63 61 61 59 61 61 60 56 56 57 58 57 55 53 54 59
63 64 66 71 70 68 69 69 70 67 64 67 64 54 56 58 59 59 60 61 61 62 63 62 61 61 62 63 63 64 64 63 63 60 59 58 59 59 60 60 60 59 55 60 58 59 60 54 58
64 67 67 70 69 66 67 68 66 65 62 63 67 60 57 57 58 59 59 60 61 61 62 62 62 59 59 63 63 63 62 61 61 60 57 57 58 56 56 58 58 57 58 56 57 58 56 55 54
64 66 68 69 66 67 66 65 65 59 59 59 59 57 57 58 58 60 62 63 63 61 61 61 60 59 59 58 60 60 60 61 61 59 57 57 57 56 57 57 57 57 57 56 56 56 56 54 54
66 65 67 66 66 65 65 61 64 60 59 56 56 56 57 57 58 59 60 60 60 61 60 60 59 59 59 59 58 60 60 60 59 59 58 55 56 56 56 55 55 56 56 56 55 55 55 54 54
65 62 64 65 65 65 63 60 56 58 58 54 54 55 56 57 59 59 61 60 61 61 61 58 58 57 58 58 58 59 60 59 59 58 56 55 55 54 54 55 54 55 55 53 53 53 53 53 53
61 60 57 62 64 65 66 54 58 60 59 54 53 54 54 56 58 62 61 61 62 62 60 59 60 57 57 57 58 59 59 58 58 57 57 55 54 54 53 54 54 55 53 53 53 53 52 52 52
58 53 53 57 61 61 61 52 58 60 58 56 54 54 54 55 58 60 61 62 62 62 59 57 58 58 57 57 58 57 56 58 58 58 57 56 54 53 52 54 54 53 53 52 52 52 51 51 51
50 51 53 52 60 58 55 52 56 58 58 55 54 54 55 55 59 61 60 62 62 61 59 59 59 57 57 57 56 57 57 57 57 57 57 55 55 53 52 53 52 52 52 51 51 50 51 51 51
55 52 50 55 59 54 50 52 54 57 57 56 54 54 55 56 59 60 59 59 58 59 58 58 57 56 57 58 57 57 56 57 56 57 55 54 54 53 52 53 52 52 50 51 51 50 48 49 49
53 50 50 55 56 55 51 50 54 55 54 53 53 52 54 54 56 56 56 58 57 57 57 57 58 56 57 58 57 56 55 56 54 55 54 53 53 52 52 51 52 52 51 49 49 48 48 48 50
52 49 49 48 53 54 51 47 51 55 56 55 53 53 53 54 55 53 54 52 54 55 55 56 56 56 55 54 56 54 54 53 52 54 54 54 52 52 51 51 50 50 50 49 49 48 46 45 48
46 52 50 49 48 45 51 41 47 50 52 50 51 51 53 54 53 53 52 52 53 53 54 55 54 55 55 54 53 51 50 49 52 52 52 52 51 50 50 50 50 49 50 48 49 49 47 45 44
48 52 49 49 47 46 45 42 45 49 47 47 49 49 50 51 52 50 50 53 52 54 54 55 54 54 54 53 52 51 49 51 52 51 48 49 50 50 50 49 49 48 49 48 47 47 46 47 44
52 50 47 47 46 37 40 41 40 41 43 47 48 48 48 50 50 51 52 53 54 54 54 54 53 54 54 53 52 49 48 49 48 49 49 49 50 50 50 49 48 48 48 47 47 47 46 45 44
49 45 37 36 35 33 42 40 38 46 45 45 46 46 48 50 50 52 53 53 53 53 53 54 54 53 54 52 51 50 49 48 47 47 47 47 47 48 48 48 47 47 47 46 46 44 43 43 42
43 43 34 26 31 35 42 32 38 46 47 46 46 46 49 49 51 50 51 52 53 52 53 52 52 51 52 51 50 50 49 49 49 48 48 46 46 47 47 47 46 46 46 45 44 43 43 43 42
43 39 43 34 35 34 37 35 41 47 45 45 45 47 47 49 49 50 51 51 52 51 51 49 49 50 51 50 49 48 48 47 47 46 45 45 44 44 44 44 42 41 42 41 40 37 36 37 38
46 48 35 36 26 25 33 34 35 41 44 44 44 45 47 48 49 50 51 51 51 50 50 50 50 49 49 49 49 48 47 46 45 44 42 42 43 42 41 40 38 38 36 35 34 33 33 32 34
42 37 37 36 32 27 27 31 41 42 47 45 45 46 48 48 49 50 51 51 51 51 51 49 49 48 48 47 47 45 45 44 43 42 42 41 41 40 36 35 34 34 33 33 32 33 33 33 33
46 40 34 30 29 31 32 33 45 46 49 48 47 47 48 49 49 50 50 51 51 50 50 50 48 47 47 47 46 45 44 43 41 40 40 38 36 34 35 34 34 33 33 34 33 32 33 33 33
MSLP
1012.25 1012.40 1012.31 1012.03 1012.10 1011.24 1010.30 1010.00 1009.99 1009.82 1010.21 1010.66 1011.07 1011.26 1011.69 1012.65 1013.34 1015.38 1016.74 1017.12 1017.28 1017.92 1018.48 1018.94 1019.47 1019.85 1020.24 1020.63 1021.06 1021.23 1021.40 1021.66 1021.94 1022.11 1022.26 1022.38 1022.47 1022.56 1022.56 1022.48 1022.33 1022.20 1022.05 1021.91 1021.90 1021.98 1022.15 1022.27 1022.26
1012.12 1012.26 1012.05 1011.64 1011.29 1010.59 1009.94 1009.82 1009.70 1009.83 1010.58 1011.24 1011.61 1012.04 1012.48 1013.60 1014.81 1015.96 1016.90 1017.42 1017.58 1018.06 1018.55 1018.96 1019.44 1019.93 1020.36 1020.83 1021.13 1021.35 1021.50 1021.83 1022.12 1022.38 1022.56 1022.63 1022.68 1022.73 1022.74 1022.72 1022.63 1022.53 1022.39 1022.22 1022.21 1022.34 1022.51 1022.62 1022.52
1011.84 1011.84 1011.55 1011.35 1011.11 1010.17 1009.52 1009.28 1009.56 1010.17 1010.83 1011.23 1011.95 1012.75 1013.35 1014.49 1015.67 1016.22 1016.82 1017.37 1017.81 1018.25 1018.64 1019.13 1019.61 1020.04 1020.48 1020.94 1021.20 1021.53 1021.84 1022.15 1022.37 1022.59 1022.74 1022.79 1022.88 1022.85 1022.81 1022.78 1022.89 1022.75 1022.67 1022.55 1022.54 1022.60 1022.80 1022.77 1022.66
1011.51 1011.55 1011.81 1011.23 1010.56 1010.17 1009.60 1009.02 1009.62 1010.33 1011.03 1011.41 1011.94 1013.02 1014.36 1015.46 1015.70 1016.43 1017.11 1017.49 1017.91 1018.40 1018.76 1019.33 1019.73 1020.14 1020.47 1020.95 1021.27 1021.64 1022.17 1022.47 1022.71 1022.91 1022.92 1022.93 1022.99 1023.07 1022.83 1022.90 1022.99 1022.92 1022.93 1022.89 1022.81 1022.90 1022.94 1022.86 1022.75
1011.56 1011.37 1011.05 1010.86 1010.46 1009.89 1009.47 1009.23 1009.59 1009.97 1010.44 1011.19 1012.05 1013.33 1014.84 1015.94 1016.30 1016.77 1017.23 1017.64 1018.07 1018.57 1019.01 1019.46 1019.90 1020.30 1020.64 1020.98 1021.44 1021.80 1022.24 1022.66 1022.94 1023.09 1023.03 1023.02 1023.12 1023.13 1022.98 1022.98 1022.96 1022.96 1023.00 1023.01 1022.95 1023.03 1022.85 1022.85 1022.80
1011.14 1011.36 1010.94 1010.48 1010.28 1009.69 1009.25 1009.00 1009.42 1009.88 1010.51 1011.47 1012.17 1013.42 1015.19 1016.35 1016.53 1016.99 1017.36 1017.73 1018.21 1018.75 1019.26 1019.64 1020.21 1020.56 1020.86 1021.22 1021.67 1021.99 1022.42 1022.80 1023.03 1023.11 1023.05 1023.07 1023.16 1023.21 1022.98 1023.02 1022.96 1022.89 1022.96 1022.96 1022.91 1023.02 1023.15 1023.23 1023.21
1010.66 1010.76 1010.44 1010.40 1010.05 1009.42 1008.86 1009.03 1009.06 1009.29 1010.06 1010.99 1011.85 1013.44 1015.67 1016.35 1016.71 1017.13 1017.57 1018.06 1018.59 1019.17 1019.53 1019.88 1020.27 1020.71 1021.02 1021.45 1021.83 1022.15 1022.45 1022.72 1022.94 1023.03 1023.18 1023.21 1023.27 1023.28 1023.24 1023.21 1023.10 1023.11 1023.09 1023.03 1023.11 1023.30 1023.46 1023.53 1023.48
1010.89 1010.61 1010.45 1010.25 1009.70 1008.92 1008.70 1008.87 1008.63 1009.07 1009.95 1011.26 1011.94 1012.82 1014.49 1015.45 1016.72 1017.36 1017.90 1018.48 1019.07 1019.54 1019.83 1020.20 1020.41 1020.81 1021.21 1021.56 1021.89 1022.18 1022.46 1022.70 1022.91 1023.09 1023.27 1023.38 1023.48 1023.52 1023.40 1023.48 1023.41 1023.45 1023.36 1023.24 1023.26 1023.53 1023.75 1023.78 1023.72
1011.09 1010.88 1010.01 1009.81 1009.51 1008.60 1008.78 1008.86 1009.06 1009.60 1010.24 1011.22 1012.11 1012.81 1013.48 1015.15 1016.75 1017.45 1018.06 1018.72 1019.26 1019.76 1020.09 1020.38 1020.66 1021.14 1021.57 1021.81 1021.98 1022.25 1022.50 1022.71 1022.86 1023.03 1023.28 1023.54 1023.51 1023.60 1023.50 1023.52 1023.64 1023.62 1023.62 1023.42 1023.65 1023.82 1023.95 1024.10 1023.98
1010.36 1010.25 1009.77 1009.41 1009.27 1008.77 1008.73 1008.99 1009.06 1009.65 1010.38 1011.34 1012.47 1013.80 1014.62 1015.54 1016.42 1016.99 1017.55 1018.24 1019.04 1019.60 1020.12 1020.36 1020.87 1021.30 1021.70 1021.84 1022.22 1022.33 1022.45 1022.55 1022.77 1022.99 1023.25 1023.50 1023.67 1023.69 1023.62 1023.58 1023.78 1023.77 1023.73 1023.65 1023.86 1024.06 1024.16 1024.08 1023.77
1010.36 1009.76 1009.46 1009.00 1009.00 1009.12 1008.97 1008.88 1009.17 1009.68 1010.52 1011.28 1012.36 1014.27 1015.08 1015.54 1016.33 1016.94 1017.43 1017.90 1018.67 1019.28 1019.98 1020.55 1020.97 1021.34 1021.58 1021.81 1022.20 1022.45 1022.64 1022.79 1022.96 1023.21 1023.43 1023.62 1023.68 1023.77 1023.77 1023.65 1023.69 1023.76 1023.90 1023.72 1023.93 1024.00 1023.92 1024.00 1023.90
1010.05 1009.53 1009.54 1009.12 1009.05 1009.35 1009.23 1009.50 1009.94 1010.80 1011.90 1011.96 1011.68 1012.89 1014.59 1015.42 1015.99 1016.75 1017.37 1017.98 1018.49 1019.39 1019.93 1020.40 1020.88 1021.45 1021.83 1022.04 1022.24 1022.43 1022.60 1022.82 1022.92 1023.14 1023.53 1023.60 1023.63 1023.73 1023.66 1023.50 1023.52 1023.64 1023.69 1023.75 1023.76 1023.75 1024.00 1024.06 1024.06
1009.86 1009.48 1009.54 1009.39 1009.44 1009.53 1009.52 1009.90 1010.49 1011.99 1012.64 1012.59 1012.73 1013.57 1014.33 1015.36 1016.28 1016.85 1017.32 1017.87 1018.63 1019.26 1019.90 1020.48 1021.03 1021.45 1021.81 1022.07 1022.27 1022.47 1022.55 1022.58 1022.71 1023.04 1023.29 1023.42 1023.39 1023.43 1023.48 1023.46 1023.50 1023.50 1023.56 1023.61 1023.60 1023.64 1023.62 1023.73 1023.82
1009.72 1009.78 1009.64 1009.65 1009.61 1009.75 1009.78 1010.84 1011.07 1012.77 1013.56 1013.75 1014.13 1014.64 1015.16 1015.68 1016.37 1017.01 1017.26 1017.85 1018.62 1019.17 1019.85 1020.46 1020.91 1021.41 1021.76 1022.00 1022.37 1022.49 1022.59 1022.59 1022.83 1022.91 1023.02 1023.32 1023.27 1023.26 1023.27 1023.24 1023.21 1023.25 1023.35 1023.36 1023.40 1023.31 1023.33 1023.40 1023.45
1009.92 1009.87 1009.84 1009.87 1009.92 1010.01 1010.39 1011.17 1012.81 1013.66 1013.92 1014.19 1014.76 1015.47 1016.06 1016.51 1016.86 1016.76 1017.03 1017.76 1018.54 1019.26 1019.91 1020.61 1021.20 1021.68 1021.91 1022.04 1022.27 1022.39 1022.47 1022.64 1022.70 1022.76 1022.90 1022.98 1023.06 1023.00 1023.06 1022.93 1022.89 1022.86 1023.08 1023.27 1023.35 1023.35 1023.35 1023.24 1023.27
1010.28 1010.39 1010.22 1010.51 1010.37 1010.39 1010.49 1011.93 1013.23 1013.78 1013.83 1014.34 1015.12 1015.73 1016.33 1016.82 1016.97 1017.04 1017.65 1018.17 1018.77 1019.53 1020.11 1020.73 1021.05 1021.59 1021.92 1022.07 1022.12 1022.21 1022.42 1022.60 1022.52 1022.53 1022.48 1022.51 1022.59 1022.74 1022.78 1022.56 1022.43 1022.50 1022.84 1022.88 1022.90 1022.88 1022.92 1022.92 1022.93
1010.96 1010.80 1010.98 1010.84 1011.28 1011.16 1011.27 1012.61 1013.86 1014.19 1014.09 1014.27 1014.99 1015.52 1016.04 1016.53 1016.91 1017.30 1017.88 1018.28 1018.85 1019.51 1020.11 1020.59 1020.98 1021.48 1021.65 1021.84 1021.91 1022.13 1022.29 1022.25 1022.15 1022.10 1022.02 1022.06 1022.15 1022.24 1022.29 1022.05 1021.94 1022.20 1022.29 1022.42 1022.40 1022.49 1022.61 1022.48 1022.55
1011.56 1011.59 1011.61 1011.54 1011.67 1011.98 1012.48 1013.46 1014.17 1014.44 1014.28 1014.52 1014.85 1015.45 1015.93 1016.33 1016.33 1017.22 1017.96 1018.51 1019.07 1019.71 1020.20 1020.56 1020.88 1021.20 1021.42 1021.69 1021.89 1021.96 1022.04 1021.91 1021.88 1021.79 1021.66 1021.67 1021.60 1021.72 1021.79 1021.66 1021.72 1021.88 1021.95 1021.97 1022.08 1022.14 1022.23 1022.25 1022.16
1012.31 1012.34 1012.35 1012.17 1012.31 1012.71 1013.38 1013.78 1014.23 1014.48 1014.08 1014.47 1015.02 1015.55 1015.93 1016.35 1016.99 1017.62 1018.33 1018.98 1019.49 1019.70 1020.05 1020.48 1020.84 1021.16 1021.35 1021.56 1021.55 1021.66 1021.45 1021.47 1021.42 1021.34 1021.46 1021.46 1021.36 1021.34 1021.32 1021.12 1021.05 1021.14 1021.14 1021.10 1021.27 1021.51 1021.70 1021.65 1022.05
1013.00 1013.03 1013.05 1012.76 1012.90 1013.05 1013.71 1014.13 1014.64 1014.90 1015.39 1015.61 1015.65 1015.95 1016.43 1017.10 1017.51 1018.16 1018.68 1019.16 1019.53 1020.02 1020.18 1020.52 1020.77 1021.16 1021.40 1021.52 1021.56 1021.73 1021.65 1021.39 1021.31 1021.19 1021.05 1020.99 1020.90 1020.81 1020.75 1020.59 1020.42 1020.42 1020.45 1020.66 1020.85 1021.10 1020.99 1021.10 1021.35
1013.72 1013.75 1013.71 1013.73 1013.44 1013.57 1013.97 1014.41 1014.74 1015.51 1015.87 1016.21 1016.67 1016.96 1017.24 1017.66 1018.02 1018.81 1019.24 1019.82 1020.11 1020.27 1020.60 1020.79 1021.03 1021.32 1021.47 1021.50 1021.55 1021.55 1021.46 1021.23 1020.87 1020.53 1020.39 1020.17 1020.29 1020.26 1020.15 1019.98 1019.88 1019.82 1019.92 1019.89 1020.04 1020.28 1020.38 1020.33 1020.63
1014.46 1014.48 1014.34 1014.00 1013.92 1013.85 1014.41 1014.71 1015.50 1015.99 1016.40 1017.07 1017.63 1017.98 1018.16 1018.32 1018.91 1019.41 1019.83 1020.26 1020.50 1020.82 1021.16 1021.27 1021.45 1021.50 1021.47 1021.52 1021.49 1021.51 1021.17 1020.61 1020.16 1020.05 1019.82 1019.71 1019.73 1019.54 1019.40 1019.30 1019.27 1019.26 1019.16 1019.20 1019.30 1019.52 1019.72 1020.02 1019.86
1015.31 1014.88 1014.64 1014.35 1014.35 1014.64 1015.15 1015.47 1016.38 1016.86 1017.02 1018.04 1018.72 1019.07 1019.30 1019.62 1019.85 1020.13 1020.45 1020.67 1021.13 1021.23 1021.35 1021.53 1021.60 1021.53 1021.47 1021.52 1021.58 1021.24 1020.65 1020.21 1019.81 1019.46 1019.26 1018.95 1018.74 1018.60 1018.42 1018.36 1018.27 1018.22 1018.19 1018.19 1018.38 1018.64 1018.99 1019.18 1019.41
1015.93 1015.00 1014.97 1014.99 1015.05 1015.45 1016.38 1016.61 1017.47 1018.22 1019.14 1019.14 1019.62 1020.01 1020.26 1020.42 1020.61 1020.90 1021.01 1021.38 1021.33 1021.49 1021.63 1021.68 1021.60 1021.42 1021.40 1021.30 1021.06 1020.82 1020.38 1019.70 1019.12 1018.66 1018.32 1017.99 1017.68 1017.37 1017.24 1017.20 1017.12 1017.01 1016.98 1017.06 1017.26 1017.55 1017.84 1018.27 1018.66
1016.43 1015.80 1015.62 1015.72 1015.84 1016.61 1017.22 1017.50 1018.72 1019.41 1020.08 1020.39 1020.39 1020.58 1020.85 1021.05 1021.19 1021.38 1021.40 1021.48 1021.61 1021.70 1021.69 1021.67 1021.53 1021.26 1021.12 1021.00 1020.71 1020.23 1019.73 1019.25 1018.67 1018.01 1017.42 1016.95 1016.47 1016.17 1015.93 1015.98 1015.88 1015.74 1015.72 1015.87 1016.14 1016.62 1017.03 1017.24 1017.55
1017.58 1017.36 1017.46 1017.36 1017.32 1017.64 1018.00 1018.82 1019.55 1020.10 1020.59 1021.02 1021.19 1021.33 1021.46 1021.60 1021.74 1021.79 1021.79 1021.85 1021.89 1021.88 1021.90 1021.86 1021.62 1021.26 1020.90 1020.63 1020.12 1019.71 1019.23 1018.52 1017.81 1017.13 1016.56 1015.99 1015.53 1015.09 1014.93 1014.84 1014.86 1014.75 1014.71 1014.88 1015.18 1015.38 1015.98 1016.25 1016.54
1018.40 1018.51 1019.08 1018.93 1019.13 1018.89 1019.13 1019.85 1020.17 1020.28 1020.73 1021.24 1021.47 1021.74 1021.91 1022.00 1022.08 1022.08 1022.20 1022.19 1022.11 1022.13 1022.10 1021.97 1021.69 1021.11 1020.66 1020.23 1019.75 1019.12 1018.52 1017.78 1017.01 1016.47 1015.96 1015.36 1014.98 1014.63 1014.33 1014.09 1014.02 1014.07 1014.07 1014.18 1014.42 1014.72 1014.97 1015.28 1015.56
1019.56 1019.94 1019.90 1020.12 1020.28 1019.97 1019.78 1019.98 1020.34 1020.32 1020.65 1021.24 1021.66 1021.88 1022.13 1022.30 1022.35 1022.37 1022.31 1022.28 1022.34 1022.25 1022.08 1021.88 1021.49 1021.06 1020.56 1019.94 1019.32 1018.51 1017.90 1017.30 1016.74 1016.16 1015.54 1015.00 1014.49 1014.05 1013.68 1013.57 1013.34 1013.11 1013.21 1013.48 1013.75 1013.79 1013.99 1014.44 1014.99
1020.56 1020.87 1021.31 1021.58 1021.63 1021.07 1020.53 1020.76 1020.69 1020.49 1020.38 1020.98 1021.60 1021.99 1022.22 1022.39 1022.50 1022.44 1022.45 1022.42 1022.34 1022.19 1021.91 1021.62 1021.31 1020.86 1020.20 1019.63 1018.93 1018.20 1017.52 1016.93 1016.37 1015.80 1015.20 1014.57 1013.96 1013.36 1013.38 1013.05 1012.68 1012.73 1012.82 1012.90 1013.00 1013.00 1013.40 1013.86 1014.42
1021.77 1022.39 1022.83 1022.74 1022.42 1021.93 1021.52 1021.37 1020.98 1020.58 1020.47 1021.01 1021.67 1022.09 1022.37 1022.58 1022.59 1022.63 1022.50 1022.40 1022.24 1022.03 1021.79 1021.56 1021.08 1020.65 1020.09 1019.44 1018.61 1017.91 1017.27 1016.65 1016.10 1015.60 1015.05 1014.49 1013.84 1013.43 1012.90 1012.74 1012.45 1012.22 1012.12 1012.11 1012.16 1012.29 1012.59 1013.04 1013.51
Wind_Speed
11 8 3 1 2 1 2 1 2 3 3 1 2 3 2 4 0 2 8 4 17 17 10 14 17 14 15 14 13 13 13 11 10 9 10 9 9 9 9 9 10 9 9 9 10 10 10 10 10
8 4 1 2 1 1 0 2 4 4 3 9 5 3 2 3 3 9 12 11 20 16 12 12 17 16 15 14 13 11 11 10 10 9 9 8 8 8 8 8 9 9 8 9 9 9 10 9 9
5 1 2 2 2 2 3 5 1 1 10 4 4 4 2 4 3 13 5 18 17 15 15 14 17 15 15 13 13 11 11 10 9 8 7 7 7 9 7 8 8 8 8 8 8 8 9 9 9
3 2 3 2 5 4 5 6 1 6 4 4 3 5 4 5 9 7 18 20 17 15 15 16 16 15 15 13 12 11 11 9 8 7 6 7 7 4 5 8 6 7 8 7 7 8 6 7 8
2 1 1 1 3 4 6 6 5 8 3 4 4 5 4 3 8 17 19 17 17 15 12 14 16 15 13 13 12 11 11 9 8 7 5 7 6 6 2 7 2 6 5 5 5 5 5 7 11
3 0 1 4 3 5 7 8 4 6 3 5 5 9 5 5 14 17 18 17 16 15 13 14 15 14 13 13 12 11 11 9 8 7 8 8 5 5 6 5 3 2 4 3 5 8 10 9 9
2 2 3 3 5 6 5 5 4 6 8 7 9 8 4 10 14 17 17 15 14 12 13 12 12 12 13 12 12 12 10 10 9 8 8 7 7 7 5 5 6 7 6 3 6 5 7 7 8
2 1 2 3 3 8 4 5 2 9 4 5 6 7 7 14 18 16 16 14 12 10 10 9 11 10 9 9 12 12 11 11 10 8 7 6 6 5 4 3 5 5 4 3 6 6 5 7 8
2 2 5 4 4 4 1 4 2 2 6 2 5 1 3 24 20 18 16 13 11 9 9 9 10 9 8 8 9 10 10 10 9 8 7 6 3 3 2 4 3 3 2 2 5 4 5 5 6
4 4 5 4 3 8 10 5 4 4 4 5 4 9 18 23 22 21 19 17 14 13 11 10 9 9 7 6 4 5 5 5 5 5 6 3 3 2 1 3 3 2 2 3 4 4 4 2 3
4 5 3 7 7 4 6 5 6 5 5 3 4 14 19 23 21 20 18 18 15 15 11 10 9 9 8 6 4 3 3 3 4 5 5 4 3 3 2 2 2 2 3 3 3 1 1 2 2
3 6 3 5 3 5 6 4 2 2 9 14 9 21 22 24 21 20 18 17 17 14 13 12 10 8 6 4 3 4 4 4 4 5 6 5 4 4 4 3 3 3 3 4 4 2 1 3 2
4 2 3 6 6 3 4 6 6 11 14 9 12 19 22 21 20 17 17 16 14 14 13 11 9 7 6 5 3 3 4 4 4 5 6 6 6 5 4 4 4 3 3 4 4 4 3 4 4
3 1 1 8 8 4 6 9 4 9 7 8 8 11 15 18 19 16 16 15 14 13 13 10 9 6 6 5 4 3 3 4 4 4 5 8 6 6 6 5 5 4 4 4 4 5 4 4 5
1 3 2 12 11 6 2 8 13 9 4 6 6 8 11 14 16 18 17 15 14 11 11 9 7 5 6 5 4 3 3 4 4 5 6 9 9 9 8 6 6 5 5 6 5 5 5 5 5
3 3 2 5 12 5 6 5 15 14 8 4 6 8 10 13 16 14 12 11 11 9 10 9 7 7 6 5 4 3 3 4 5 5 6 8 10 10 9 7 7 6 5 5 5 5 5 5 5
6 3 3 5 5 3 10 4 14 15 14 6 6 9 12 13 14 13 11 10 10 11 11 10 9 8 7 5 3 2 2 4 4 4 5 7 8 10 10 8 8 8 7 7 6 6 7 5 5
2 1 1 4 6 8 6 8 10 14 14 13 5 9 11 13 16 12 10 8 9 8 9 9 8 8 6 3 1 2 4 4 4 4 5 7 6 8 9 8 9 7 7 7 7 9 7 7 6
4 2 3 4 3 3 5 9 13 14 22 17 6 7 10 11 6 8 8 8 9 11 11 10 9 7 4 3 3 4 5 4 5 5 7 7 6 6 8 7 8 8 9 10 10 10 11 9 7
5 3 4 7 3 1 3 12 8 15 18 14 10 3 5 6 7 8 9 9 8 7 10 9 7 6 3 2 2 3 3 4 5 6 8 8 9 9 9 10 9 10 8 9 10 11 9 9 8
1 4 6 7 8 4 2 2 14 11 17 16 13 6 7 6 8 7 7 5 5 7 7 6 5 2 1 2 3 4 4 5 6 7 7 8 9 10 10 12 11 11 10 10 11 11 14 10 9
3 7 9 10 2 1 7 2 11 14 15 18 15 11 6 7 8 7 7 6 5 5 4 3 2 2 3 4 5 6 8 10 9 9 8 9 11 13 13 13 13 12 10 12 11 10 11 11 11
4 15 5 4 2 3 8 2 6 11 14 16 13 11 8 7 7 8 7 8 6 5 4 2 3 4 5 6 6 7 11 10 9 9 12 13 12 14 13 13 14 13 11 13 13 13 12 10 11
14 5 1 2 1 2 5 2 5 8 12 11 8 8 8 7 9 9 9 6 6 4 3 3 5 7 8 8 10 11 14 14 12 13 12 11 11 10 12 13 13 13 13 14 13 14 16 13 12
14 6 2 1 2 2 4 2 3 8 7 7 7 7 6 8 8 7 7 6 5 4 5 6 8 10 11 11 12 13 14 15 16 16 12 15 12 11 13 13 13 11 13 13 12 12 14 14 13
6 5 3 2 2 3 3 2 3 5 5 4 4 5 7 8 6 6 5 6 5 6 7 8 9 12 13 13 14 13 15 11 12 14 13 12 11 12 13 13 13 15 14 13 12 9 12 14 13
6 5 5 3 2 2 2 3 4 1 5 5 6 6 6 5 4 4 4 5 6 7 8 8 10 12 13 14 14 14 14 16 15 18 16 12 13 11 12 11 11 12 13 12 12 9 13 13 13
8 6 1 4 4 3 3 3 4 7 5 3 4 5 3 1 1 4 5 6 6 7 8 9 10 12 14 15 14 13 15 15 15 14 16 15 13 13 12 12 13 13 9 7 9 9 8 8 6
5 6 5 1 1 3 3 4 2 8 3 3 5 4 2 0 3 5 6 6 7 8 9 10 11 13 14 15 16 16 15 15 15 14 14 14 14 12 11 10 6 5 7 8 9 7 8 10 10
7 6 3 2 3 2 2 3 5 7 5 6 5 3 1 2 4 5 6 7 8 10 11 12 13 14 15 15 16 16 16 15 15 15 15 14 12 11 7 7 7 7 8 9 9 10 9 13 13
Wind_Direction
131 140 137 185 224 310 282 226 286 244 215 184 113 192 172 37 221 4 140 138 147 148 150 145 139 141 135 133 127 121 115 115 107 101 88 82 79 73 66 60 53 44 41 42 42 40 37 34 28
142 134 132 101 161 267 152 243 237 265 121 124 113 110 145 100 74 116 140 155 146 143 142 141 143 140 138 133 134 131 124 119 110 104 93 85 84 85 76 68 56 48 40 41 39 37 36 31 25
140 77 222 107 129 203 283 210 303 122 156 182 134 33 88 103 80 142 132 150 145 146 146 143 143 142 140 144 143 134 119 118 113 104 96 92 93 96 69 88 54 49 48 44 40 38 37 31 32
151 140 108 224 231 241 246 290 272 153 211 227 140 112 99 357 148 148 144 148 145 146 147 141 140 146 144 147 140 136 126 123 114 104 100 94 96 70 79 93 65 49 51 45 46 48 34 36 36
61 93 153 217 249 265 250 276 181 196 180 164 185 144 86 62 118 139 146 149 147 149 151 141 142 143 149 144 144 142 135 134 123 117 114 125 93 102 39 105 42 59 58 43 52 44 53 61 46
109 111 230 258 243 259 278 259 167 212 174 137 143 141 120 136 141 148 150 151 149 147 149 145 144 146 146 143 148 148 144 139 133 128 89 84 90 63 61 51 46 70 70 57 65 77 55 44 38
155 162 236 246 271 280 256 143 209 206 181 200 142 145 113 168 155 152 150 145 146 144 146 147 145 146 147 149 152 148 148 141 136 124 94 83 81 75 61 44 46 37 34 33 94 76 69 36 19
118 225 210 221 228 283 269 193 262 196 197 97 160 182 173 179 159 149 145 142 142 144 140 137 146 146 148 152 155 153 150 151 148 139 118 99 80 63 68 69 62 30 3 38 81 73 60 22 8
151 216 254 250 217 273 197 259 90 53 122 123 147 100 114 145 149 146 146 146 145 144 144 150 146 142 143 151 159 159 161 163 164 163 143 128 114 87 98 64 53 24 360 95 98 65 39 35 23
180 204 232 239 238 288 303 263 257 192 144 188 151 85 131 146 157 158 160 157 162 162 168 166 155 150 150 160 152 159 180 183 179 174 159 166 154 134 101 99 88 52 357 107 93 70 68 27 10
164 237 217 274 272 277 288 288 170 178 207 33 268 150 155 157 163 163 164 164 169 175 170 171 164 162 170 169 168 176 180 185 187 185 183 180 180 176 188 162 163 156 159 185 173 165 28 33 332
229 244 248 300 335 325 302 349 102 48 338 307 277 161 159 165 166 166 165 166 175 176 177 177 176 170 173 170 191 206 207 205 211 207 200 201 205 206 206 203 180 191 197 197 207 210 237 248 265
216 272 341 324 339 23 322 42 97 17 355 24 122 151 161 164 166 168 169 174 170 179 181 181 176 179 175 183 191 200 206 211 218 211 211 219 223 222 216 211 205 207 197 213 221 235 246 255 253
200 354 297 358 2 34 49 47 56 8 360 63 119 148 161 164 167 163 177 172 182 182 183 176 183 182 182 185 187 220 226 219 221 231 234 226 236 235 228 220 213 210 208 211 230 231 242 254 251
334 140 23 21 354 27 262 51 20 341 31 80 109 138 154 167 167 181 178 178 183 186 174 175 164 153 172 170 188 223 238 232 241 247 245 241 234 236 237 232 224 220 210 218 229 228 238 249 237
43 73 349 27 5 8 322 58 17 10 355 58 126 148 157 168 185 187 177 180 183 179 174 159 161 161 171 188 200 216 230 241 246 248 254 250 243 239 237 237 232 224 218 221 225 229 237 247 248
20 55 17 341 35 330 24 44 19 14 22 21 164 166 166 167 194 192 180 180 175 172 164 161 167 175 183 195 211 243 248 244 249 255 259 261 250 241 238 239 239 225 225 225 230 229 237 243 246
29 65 327 340 9 37 73 67 27 23 27 22 192 178 176 183 197 182 175 165 172 166 163 164 165 172 180 183 180 242 248 247 254 259 266 273 261 246 236 240 244 240 238 237 233 239 229 245 252
100 90 358 303 35 84 79 55 32 20 23 14 29 188 187 192 176 171 154 144 145 170 172 171 171 171 174 193 225 240 255 276 272 260 266 268 261 253 238 243 243 233 232 236 236 238 239 232 233
58 65 0 293 333 308 134 49 28 29 27 12 8 158 175 156 147 139 149 167 180 170 175 172 178 177 190 223 247 270 292 285 284 275 266 260 258 254 249 248 250 242 242 241 239 230 234 242 222
6 29 329 302 333 73 172 93 17 27 28 33 39 59 97 130 145 133 134 127 173 172 171 171 172 154 251 288 276 276 273 268 271 268 271 265 254 253 249 252 246 244 245 250 247 232 225 236 219
308 6 316 304 265 167 358 2 31 360 27 35 30 36 54 114 108 111 116 125 141 119 112 92 57 313 296 297 298 295 289 283 283 281 280 278 266 260 259 253 250 249 249 243 240 229 228 226 234
323 317 287 287 187 168 19 80 6 14 7 16 29 35 48 70 93 105 104 109 96 89 85 37 330 306 307 302 292 285 277 280 281 277 276 274 271 262 257 252 250 247 244 241 236 233 225 225 231
326 328 61 84 129 94 356 343 34 14 341 353 21 30 40 59 92 104 94 98 84 75 44 347 326 317 312 301 290 279 282 283 282 280 284 282 277 272 261 254 249 248 245 240 235 232 228 221 221
0 340 2 123 42 67 354 47 32 2 6 349 3 31 62 89 86 84 78 67 51 30 0 343 336 314 310 305 299 292 289 288 285 284 280 281 278 271 266 262 260 251 242 235 227 232 231 218 209
329 14 36 304 350 12 31 68 42 24 43 25 44 69 92 86 83 70 57 38 11 356 350 337 323 313 315 313 305 301 297 293 291 285 284 278 276 274 271 264 259 257 248 234 224 230 236 226 214
357 24 340 293 43 252 347 111 322 94 44 40 71 99 95 81 68 46 25 359 346 344 333 324 321 316 317 319 315 309 306 303 299 301 296 293 290 286 281 272 261 249 242 232 233 233 225 221 208
46 350 356 27 22 20 28 42 57 20 19 76 114 130 117 89 28 3 347 342 339 328 324 326 321 322 322 321 321 314 313 313 314 311 307 306 303 299 291 290 274 252 226 225 232 223 190 191 193
358 23 18 90 359 329 337 70 268 302 303 154 165 167 168 297 331 334 333 333 326 329 331 327 332 332 325 326 323 319 319 320 322 321 320 316 312 302 309 293 268 253 235 227 229 207 203 207 212
63 48 64 355 2 291 308 79 335 8 41 141 153 178 197 297 323 330 325 332 339 334 337 339 332 334 332 328 322 324 326 329 330 332 332 326 312 308 292 289 276 255 244 236 224 216 209 201 200